Regional Weather Roundup
Issued by NWS

Home | Current Version | Previous Version | Text Only | Print | Product List | Glossary On
Versions: 1 2 3 4 5 6 7 8 9 10 11 12 13 14 15 16 17 18 19 20 21 22 23 24 25 26 27
000
ASUS43 KMPX 100310
RWRMN
WEATHER ROUNDUP FOR MINNESOTA
NATIONAL WEATHER SERVICE TWIN CITIES/CHANHASSEN MN
1000 PM CDT SUN MAY 09 2021


NOTE: "FAIR" INDICATES FEW OR NO CLOUDS BELOW 12,000 FEET WITH NO
SIGNIFICANT WEATHER AND/OR OBSTRUCTIONS TO VISIBILITY. N/A MEANS
CURRENT SKY AND/OR WEATHER CONDITIONS ARE NOT AVAILABLE.

MNZ060>063-068>070-100400-
   Twin Cities Metro

CITY           SKY/WX    TMP DP  RH WIND       PRES   REMARKS
TWIN CITIES    PTCLDY    53  24  32 E12G20    30.07R
ST PAUL        PTCLDY    52  26  36 E10G22    30.09R
CRYSTAL        PTCLDY    51  24  34 NE15G22   30.07R
BLAINE         CLEAR     52  25  35 NE9       30.09R
LAKEVILLE      PTCLDY    50  25  37 NE6       30.06R
EDEN PRAIRIE   PTCLDY    52  25  35 NE7       30.05R
SOUTH ST PAUL  PTCLDY    52  25  34 NE8       30.08R
$$
MNZ001>005-007-008-013>017-022>024-027-028-100400-
   Northwest Minnesota

CITY           SKY/WX    TMP DP  RH WIND       PRES   REMARKS
BEMIDJI        MOCLDY    42  22  46 NE10      30.17R
HALLOCK        MOCLDY    48  21  34 E8        30.23R
ROSEAU           N/A     46 N/A N/A NE6       30.24R
WARROAD        CLOUDY    45  28  53 NE8       30.24R
THIEF RVR FALL CLEAR     43  21  41 NE9       30.21R
CROOKSTON      CLEAR     43  19  39 E7        30.20R
FOSSTON        CLEAR     39  21  48 N8        30.19R
DETROIT LAKES  PTCLDY    46  25  42 NE13      30.13R
MOORHEAD       PTCLDY    50  18  27 NE13      30.16R
PARK RAPIDS    PTCLDY    46  24  42 NE8       30.13R
MAHNOMEN       FAIR      40  24  52 NE9       30.16R
$$
MNZ006-009>011-018-025>026-100400-
   North Central Minnesota

CITY           SKY/WX    TMP DP  RH WIND       PRES   REMARKS
BAUDETTE       CLOUDY    41  23  48 NE8       30.23R
FLAG ISLAND    CLOUDY    43  21  42 NE9       30.25R
INTL FALLS     CLOUDY    42  23  46 NE5       30.21R
WASKISH        CLOUDY    39  25  56 NE6       30.20S
BIG FORK       CLOUDY    39  21  48 NE6       30.23R
LONGVILLE      CLOUDY    45  19  36 NE6       30.15R
GRAND RAPIDS   CLOUDY    43  21  41 VRB3      30.19R
CRANE LAKE     CLOUDY    39  25  56 N3        30.23R
ORR            CLOUDY    39  19  45 CALM      30.18R
COOK           CLOUDY    39  21  48 CALM      30.19R
WALKER         CLOUDY    44  24  45 NE8G16    30.16R
$$
MNZ012-019>021-037-100400-
   Northeast Minnesota

CITY           SKY/WX    TMP DP  RH WIND       PRES   REMARKS
DULUTH         CLOUDY    39  26  59 NE7       30.16R
ELY            CLOUDY    39  19  45 CALM      30.18R
HIBBING        CLOUDY    40  21  46 NE6       30.17R
EVELETH        CLOUDY    41  23  49 N6        30.18S
DULUTH HARBOR  CLOUDY    43  30  61 NE12      30.19R
TWO HARBORS    CLOUDY    37  27  65 CALM      30.17S
SILVER BAY     CLOUDY    36  25  64 CALM      30.18S
GRAND MARAIS     N/A     39  29  67 CALM      30.18S
G MARAIS ARPRT CLOUDY    34  27  75 CALM      30.15S
$$
MNZ029>031-032-039>041-046>048-054>057-064-100400-
   West Central Minnesota

CITY           SKY/WX    TMP DP  RH WIND       PRES   REMARKS
FERGUS FALLS   PTCLDY    48  27  43 NE5       30.07R
WHEATON        PTCLDY    48  18  29 N6        30.11R
MORRIS         PTCLDY    50  12  22 N12       30.08R
ALEXANDRIA     MOCLDY    50  24  36 NE13      30.09R
ELBOW LAKE     FAIR      51  28  41 NE7       30.10R
WADENA         PTCLDY    46  28  49 NE6       30.11R
GLENWOOD       MOCLDY    48  25  40 N9        30.08R
APPLETON       PTCLDY    54  19  26 N8        30.06R
BENSON         PTCLDY    48  21  34 NE3       30.07R
ORTONVILLE     PTCLDY    54  21  28 N12       30.08R
MADISON        PTCLDY    52  18  25 NW9       30.08R
WILLMAR        FAIR      54  21  28 E3        30.08R
$$
MNZ033>034-036-042>043-049>051-058-059-100400-
   Central Minnesota

CITY           SKY/WX    TMP DP  RH WIND       PRES   REMARKS
ST CLOUD       PTCLDY    49  25  39 NE9G20    30.08R
SAUK CENTRE    FAIR      49  26  41 NE9       30.08R
PAYNESVILLE    CLOUDY    48  30  49 CALM      30.07R
AITKIN         PTCLDY    39  28  65 CALM      30.15R
PINE RIVER     PTCLDY    46  28  49 CALM      30.17R
BRAINERD       PTCLDY    46  26  45 E8        30.13R
STAPLES        CLOUDY    48  25  40 NE5       30.11R
LONG PRAIRIE   FAIR      46  27  46 NE6       30.09R
LITTLE FALLS   PTCLDY    46  21  36 E7G16     30.11R
CAMP RIPLEY    CLOUDY    47  28  46 NE12      30.11R
LITCHFIELD     PTCLDY    50  28  43 CALM      30.06R
BUFFALO        MOCLDY    50  24  36 MISG      30.08R
MAPLE LAKE     MOCLDY    48  29  47 NE6       30.08R
HUTCHINSON     CLEAR     49  26  41 NE7       30.07R
$$
MNZ037-044-045-052-053-100400-
   East Central Minnesota

CITY           SKY/WX    TMP DP  RH WIND       PRES   REMARKS
PRINCETON      PTCLDY    48  27  43 NE10      30.11R
MORA           PTCLDY    43  28  56 CALM      30.15R
CAMBRIDGE      PTCLDY    48  30  49 NE6       30.12R
RUSH CITY      MOCLDY    46  27  48 NE8       30.12R
MOOSE LAKE     CLOUDY    41  28  60 NE6       30.15R
CLOQUET        CLOUDY    39  25  56 NE7       30.15R
$$
MNZ071>073-080-081-089-090-097-098-100400-
   Southwest Minnesota

CITY           SKY/WX    TMP DP  RH WIND       PRES   REMARKS
MONTEVIDEO     MOCLDY    54  12  19 CALM      30.06R
GRANITE FALLS  PTCLDY    52  24  32 N3        30.07R
CANBY          MOCLDY    52  30  43 NW10      30.08R
MARSHALL       MOCLDY    53  31  42 W13       30.07R
REDWOOD FALLS  MOCLDY    52  21  29 CALM      30.05R
OLIVIA         PTCLDY    50  19  29 E3        30.05R
PIPESTONE        N/A     50  37  62 NW13      30.09R
WINDOM         MOCLDY    52  25  35 CALM      30.05R
WORTHINGTON    CLOUDY    51  35  54 W15       30.08R
JACKSON        CLOUDY    52  32  46 W10       30.06R
TRACY          MOCLDY    54  27  35 NW8       30.07R
SLAYTON        CLOUDY    51  31  46 W17G23    30.08R
$$
MNZ065>067-074>077-082>085-091>093-100400-
   South Central Minnesota

CITY           SKY/WX    TMP DP  RH WIND       PRES   REMARKS
MANKATO        PTCLDY    52  21  29 N9        30.05R
NEW ULM        PTCLDY    54  19  26 NE6       30.05R
ST JAMES       MOCLDY    48  21  34 N7        30.04R
FAIRMONT       MOCLDY    54  22  28 N3        30.04R
GLENCOE        PTCLDY    50  24  35 CALM      30.06R
FARIBAULT      PTCLDY    52  27  37 N7        30.05R
OWATONNA       PTCLDY    52  27  37 N9        30.04R
WASECA         PTCLDY    46  27  46 N9        30.05R
ALBERT LEA     PTCLDY    52  23  32 N5        30.03R
$$
MNZ078>079-086>088-094>096-100400-
   Southeast Minnesota

CITY           SKY/WX    TMP DP  RH WIND       PRES   REMARKS
ROCHESTER      PTCLDY    49  25  39 N6        30.03R
RED WING       CLEAR     52  23  32 NE9G16    30.06R
STANTON        PTCLDY    49  28  43 NE9       30.05R
DODGE CENTER   PTCLDY    48  21  34 N5        30.04R
WINONA         PTCLDY    54  32  43 NE9       30.05R
AUSTIN         PTCLDY    52  25  35 NE3       30.03R
PRESTON        PTCLDY    50  27  40 N5        30.03S
$$
ABBREVIATIONS USED IN REMARKS
   TC - TEMPERATURES IN CELSIUS
  WCI - WIND CHILL INDEX
   HX - HEAT INDEX
  VSB - VISIBILITY
$$



USA.gov is the U.S. government's official web portal to all federal, state and local government web resources and services.